Leadville, CO

9:02 AM MDT on August 23, 2017 (GMT -0600)
Lake County

Weather History for KLXV - August, 2013

Change the Weather History Date:

Wednesday, August 21, 2013

  Actual Average Record
Temperature  
Mean Temperature 57 °F -  
Max Temperature 74 °F 67 °F 75 °F (2007)
Min Temperature 40 °F 37 °F 25 °F (1980)
Degree Days  
Heating Degree Days 8 13  
Month to date heating degree days 254 246  
Since 1 June heating degree days 892 1062  
Since 1 July heating degree days 521 582  
Cooling Degree Days 0 0  
Month to date cooling degree days 0 0  
Year to date cooling degree days 0 0  
Since 1 June cooling degree days 0 0  
Growing Degree Days 8 (Base 50)    
Moisture  
Dew Point 40 °F    
Average Humidity 56    
Maximum Humidity 86    
Minimum Humidity 25    
Precipitation  
Precipitation 0.04 in 0.06 in 0.36 in (1999)
Month to date precipitation 1.07 1.42  
Year to date precipitation 11.30 8.34  
Sea Level Pressure  
Sea Level Pressure 30.06 in    
Wind  
Wind Speed 5 mph (ENE)    
Max Wind Speed 17 mph    
Max Gust Speed 25 mph    
Visibility 10 miles    
Events Rain , Thunderstorm    
T = Trace of Precipitation, MM = Missing Value Source: NWS Daily Summary

Daily Weather History Graph

Daily Weather History Graph

Search for Another Location

Airport or City:

Trip Planner

Search our weather history database for the weather conditions in past years. The results will help you decide how hot, cold, wet, or windy it might be!

Date:

Astronomy

Aug. 21, 2013 Rise Set
Actual Time 6:24 AM MDT 7:51 PM MDT
Civil Twilight 5:55 AM MDT 8:19 PM MDT
Nautical Twilight 5:22 AM MDT 8:53 PM MDT
Astronomical Twilight 4:46 AM MDT 9:29 PM MDT
Moon 8:03 PM MDT (8/21) 7:06 AM MDT (8/21)
Length of Visible Light 14h 23m
Length of Day
13h 27m
Full, 99% of the Moon is Illuminated
Aug 21
Full
Aug 28
Last Quarter
Sep 5
New
Sep 12
First Quarter
Sep 19
Full

Hourly Weather History & Observations

Time (MDT) Temp. Windchill Dew Point Humidity Pressure Visibility Wind Dir Wind Speed Gust Speed Precip Events Conditions
12:53 AM 48.0 °F - 42.1 °F 80% 29.99 in 10.0 mi Calm Calm - N/A   Scattered Clouds
1:53 AM 46.9 °F - 41.0 °F 80% 29.98 in 10.0 mi NE 4.6 mph - N/A   Overcast
2:53 AM 48.0 °F - 39.9 °F 74% 29.96 in 10.0 mi ENE 3.5 mph - N/A   Scattered Clouds
3:53 AM 44.1 °F - 39.0 °F 82% 30.00 in 10.0 mi Calm Calm - N/A   Partly Cloudy
4:53 AM 44.1 °F 40.1 °F 37.9 °F 79% 30.02 in 10.0 mi NE 6.9 mph - N/A   Clear
5:53 AM 43.0 °F 38.2 °F 37.0 °F 80% 30.05 in 10.0 mi NE 8.1 mph - N/A   Partly Cloudy
6:53 AM 42.1 °F 39.2 °F 37.0 °F 82% 30.10 in 10.0 mi NE 4.6 mph - N/A   Clear
7:53 AM 50.0 °F - 39.0 °F 66% 30.06 in 10.0 mi Calm Calm - N/A   Clear
8:53 AM 55.9 °F - 41.0 °F 57% 30.04 in 10.0 mi Calm Calm - N/A   Clear
9:53 AM 63.0 °F - 37.0 °F 38% 30.01 in 10.0 mi Calm Calm - N/A   Clear
10:53 AM 64.0 °F - 39.0 °F 40% 30.00 in 10.0 mi SSW 8.1 mph - N/A   Clear
11:53 AM 66.9 °F - 37.9 °F 34% 30.00 in 10.0 mi Variable 6.9 mph 16.1 mph N/A   Mostly Cloudy
12:53 PM 70.0 °F - 37.0 °F 30% 29.97 in 10.0 mi NW 15.0 mph 20.7 mph N/A   Clear
1:53 PM 70.0 °F - 32.0 °F 25% 29.96 in 10.0 mi Variable 5.8 mph - N/A   Partly Cloudy
2:53 PM 69.1 °F - 35.1 °F 29% 29.94 in 10.0 mi Variable 6.9 mph - N/A   Mostly Cloudy
3:53 PM 73.0 °F - 37.0 °F 27% 29.92 in 10.0 mi NNW 12.7 mph 20.7 mph N/A   Mostly Cloudy
4:37 PM 66.2 °F - 37.4 °F 35% 30.48 in 10.0 mi ENE 9.2 mph 16.1 mph N/A Thunderstorm Thunderstorm
4:53 PM 62.1 °F - 39.9 °F 44% 30.02 in 10.0 mi ESE 9.2 mph - N/A Thunderstorm Overcast
5:18 PM 57.2 °F - 41.0 °F 55% 30.50 in 10.0 mi East 10.4 mph 20.7 mph 0.00 in Rain Light Rain
5:53 PM 53.1 °F - 46.9 °F 80% 30.11 in 10.0 mi ESE 8.1 mph - 0.04 in   Overcast
6:53 PM 52.0 °F - 46.0 °F 80% 30.16 in 10.0 mi SSE 8.1 mph - 0.00 in Rain Light Rain
7:53 PM 51.1 °F - 46.0 °F 83% 30.11 in 10.0 mi South 3.5 mph - 0.00 in   Overcast
8:53 PM 52.0 °F - 46.9 °F 83% 30.08 in 10.0 mi Calm Calm - N/A   Overcast
9:53 PM 51.1 °F - 46.0 °F 83% 30.06 in 10.0 mi Calm Calm - 0.00 in   Overcast
10:53 PM 50.0 °F - 46.0 °F 86% 30.05 in 10.0 mi NE 5.8 mph - N/A   Clear
11:53 PM 50.0 °F - 45.0 °F 83% 30.01 in 10.0 mi East 4.6 mph - N/A   Clear